Location: Radom
(51.4061°N, 21.1577°E)
Time: 10:29:17
(UTC+02:00)

ISS - Visible Passes

Search period start: 18 July 2018 00:00
Search period end: 28 July 2018 00:00
Orbit: 402 x 408 km, 51.6° (Epoch: 18 July)

Date Brightness Start Highest point End Pass type
(mag) Time Alt. Az. Time Alt. Az. Time Alt. Az.
18 Jul -4.0 00:50:11 27° WSW 00:51:48 80° SSE 00:55:06 10° E visible
18 Jul -3.9 02:25:01 10° W 02:28:19 89° N 02:31:39 10° E visible
18 Jul -1.5 22:25:44 11° E 22:25:44 11° E 22:26:00 10° E visible
18 Jul -3.9 23:58:10 27° SW 23:59:43 62° SSE 00:03:00 10° E visible
19 Jul -3.8 01:32:54 10° W 01:36:12 84° N 01:39:31 10° E visible
19 Jul -3.7 03:09:25 10° W 03:12:40 54° SSW 03:15:54 10° ESE visible
19 Jul -1.8 21:30:38 10° SSE 21:31:49 11° SE 21:32:59 10° ESE visible
19 Jul -3.6 23:04:32 10° SW 23:07:41 45° SSE 23:10:51 10° E visible
20 Jul -3.9 00:40:46 10° W 00:44:04 86° N 00:47:23 10° E visible
20 Jul -4.0 02:17:18 10° W 02:20:35 72° SSW 02:23:52 10° ESE visible
20 Jul -2.6 03:54:05 10° W 03:56:44 22° SW 03:59:23 10° SSE visible
20 Jul -3.1 22:12:43 10° SW 22:15:40 31° SSE 22:18:38 10° E visible
20 Jul -4.0 23:48:39 10° WSW 23:51:57 85° SSE 23:55:15 10° E visible
21 Jul -3.9 01:25:10 10° W 01:28:28 87° S 01:31:47 10° E visible
21 Jul -3.2 03:01:45 10° W 03:04:46 33° SSW 03:07:46 10° SE visible
21 Jul -2.5 21:21:10 10° SSW 21:23:42 21° SE 21:26:15 10° E visible
21 Jul -4.0 22:56:33 10° WSW 22:59:49 69° SSE 23:03:06 10° E visible
22 Jul -3.9 00:33:01 10° W 00:36:19 85° N 00:39:37 10° E visible
22 Jul -3.7 02:09:32 10° W 02:12:44 47° SSW 02:15:55 10° SE visible
22 Jul -1.9 03:47:09 10° WSW 03:48:37 13° SW 03:50:07 10° SSW visible
22 Jul -3.7 22:04:32 10° SW 22:07:42 51° SSE 22:10:56 10° E visible
22 Jul -3.8 23:40:51 10° W 23:44:08 84° N 23:47:27 10° E visible
23 Jul -4.0 01:17:22 10° W 01:20:38 65° SSW 01:20:44 65° S visible
23 Jul -3.2 21:12:38 10° SW 21:15:39 35° SSE 21:18:42 10° E visible
23 Jul -3.9 22:48:40 10° W 22:51:58 89° SSE 22:55:16 10° E visible
24 Jul -4.0 00:25:12 10° W 00:28:29 82° SSW 00:29:01 60° ESE visible
24 Jul -3.9 21:56:31 10° WSW 21:59:47 75° SSE 22:03:05 10° E visible
24 Jul -3.9 23:33:01 10° W 23:36:19 87° NNE 23:38:00 27° E visible
25 Jul -1.8 01:09:33 10° W 01:10:36 18° W 01:10:36 18° W visible
25 Jul -3.8 22:40:48 10° W 22:44:07 84° N 22:47:11 12° E visible
26 Jul -3.2 00:17:19 10° W 00:19:47 43° WSW 00:19:47 43° WSW visible
26 Jul -3.8 21:48:36 10° W 21:51:54 88° N 21:55:11 10° E visible
26 Jul -4.0 23:25:07 10° W 23:28:24 76° SSW 23:29:05 52° ESE visible
27 Jul -3.9 22:32:54 10° W 22:36:11 90° SSE 22:38:25 19° E visible
